Regional Weather Roundup
Issued by NWS

Home | Current Version | Previous Version | Graphics & Text | Print | Product List | Glossary On
Versions: 1 2 3 4 5 6 7 8 9 10 11 12 13 14 15 16 17 18 19 20 21 22 23 24 25 26 27 28 29 30 31 32 33 34 35 36 37 38 39 40 41 42 43 44 45 46 47 48 49 50
000
ASUS43 KOAX 210802
RWRNE

WEATHER ROUNDUP FOR NEBRASKA
NATIONAL WEATHER SERVICE OMAHA NE
300 AM CDT TUE APR 21 2015

NOTES: SATELLITE DATA IS BEING USED TO AUGMENT CLOUD COVER ABOVE
       12000 FEET.
       "FAIR" INDICATES FEW OR NO CLOUDS BELOW 12,000 FEET WITH NO
       SIGNIFICANT WEATHER AND/OR OBSTRUCTIONS TO VISIBILITY.

  * THESE STATIONS DO NOT REPORT WEATHER SUCH AS RAIN...SNOW OR FOG.

NEZ001>004-019>022-054>056-210900-
NEBRASKA PANHANDLE

CITY           SKY/WX    TMP DP  RH WIND       PRES   REMARKS
SCOTTSBLUFF    CLEAR     31  25  78 N8        29.92S WCI  23
ALLIANCE       CLEAR     23  20  88 W7        29.91F WCI  15
CHADRON        CLEAR     26  23  88 SW5       29.92F WCI  20
SIDNEY         CLEAR     32  27  81 NW10      29.92S WCI  24
$$

NEZ057>060-069>072-079>082-210900-
SOUTHWEST NEBRASKA

CITY           SKY/WX    TMP DP  RH WIND       PRES   REMARKS
NORTH PLATTE   CLEAR     28  26  92 CALM      29.90F
IMPERIAL       CLEAR     31  26  82 N7        29.91R WCI  24
MCCOOK         MOCLDY    38  32  79 VRB6      29.90R WCI  33
$$

NEZ005>010-023>029-035>040-094-210900-
NORTH CENTRAL NEBRASKA

CITY           SKY/WX    TMP DP  RH WIND       PRES   REMARKS
VALENTINE      CLEAR     32  25  75 W8        29.87F WCI  25
AINSWORTH      PTCLDY    38  26  62 W7        29.86F WCI  33
BROKEN BOW     CLOUDY    42  27  55 CALM      29.88F
ORD            CLOUDY    40  29  64 W7        29.86S
$$

NEZ041-046>049-061>064-073>077-083>087-210900-
SOUTH CENTRAL NEBRASKA

CITY           SKY/WX    TMP DP  RH WIND       PRES   REMARKS
GRAND ISLAND   CLOUDY    43  30  60 W8        29.88S
HASTINGS       PTCLDY    38  29  70 W8        29.87F WCI  32
KEARNEY *      PTCLDY    36  27  69 W7        29.89F WCI  30
$$

NEZ011>018-030>034-042>045-210900-
NORTHEAST NEBRASKA

CITY           SKY/WX    TMP DP  RH WIND       PRES   REMARKS
NORFOLK        PTCLDY    40  24  53 W10       29.82R WCI  33
COLUMBUS *     CLOUDY    39  23  52 W8        29.85S WCI  34
TEKAMAH        PTCLDY    41  22  46 W14       29.79S
$$

NEZ050>053-065>068-078-088>093-210900-
SOUTHEAST NEBRASKA

CITY           SKY/WX    TMP DP  RH WIND       PRES   REMARKS
LINCOLN        CLOUDY    45  31  58 W5        29.86R
OMAHA EPPLEY   MOCLDY    46  20  35 W13       29.80R
FALLS CITY     MOCLDY    43  30  60 SW12      29.83
$$

NEZ044-045-051>053-067-210900-
OMAHA AREA

CITY           SKY/WX    TMP DP  RH WIND       PRES   REMARKS
OMAHA EPPLEY   MOCLDY    46  20  35 W13       29.80R
OFFUTT AFB     CLOUDY    38  29  71 NW8       29.80S WCI  32
$$



USA.gov is the U.S. government's official web portal to all federal, state and local government web resources and services.